N634DE KSAN-KVNY

Flight info

Callsign N634DE
Flight time 0h 40m
Altitude 16000
Route CWARD2 LAX CANOG
Aircraft C525/L-SDFGRWY/S

Departure

Time 2026-04-22 02:39
Airport San Diego International Airport (KSAN)

Arrival

Time 2026-04-22 03:19
Airport Van Nuys Airport (KVNY)
Time Latitude Longitude Altitude Speed Heading
2026-04-22 02:13 32.73331 -117.17706 25 ft 0 kts 233°
2026-04-22 02:34 32.73330 -117.17708 25 ft 0 kts 233°
2026-04-22 02:34 32.73323 -117.17723 24 ft 4 kts 250°
2026-04-22 02:34 32.73326 -117.17781 23 ft 8 kts 283°
2026-04-22 02:34 32.73344 -117.17857 23 ft 10 kts 287°
2026-04-22 02:35 32.73352 -117.17947 22 ft 10 kts 230°
2026-04-22 02:35 32.73288 -117.17974 22 ft 9 kts 195°
2026-04-22 02:35 32.73235 -117.17963 22 ft 7 kts 130°
2026-04-22 02:35 32.73212 -117.17896 22 ft 9 kts 107°
2026-04-22 02:36 32.73192 -117.17813 22 ft 11 kts 106°
2026-04-22 02:36 32.73169 -117.17717 22 ft 12 kts 104°
2026-04-22 02:36 32.73131 -117.17664 23 ft 0 kts 188°
2026-04-22 02:36 32.73128 -117.17665 23 ft 0 kts 189°
2026-04-22 02:37 32.73116 -117.17667 23 ft 4 kts 191°
2026-04-22 02:37 32.73066 -117.17685 22 ft 9 kts 209°
2026-04-22 02:37 32.73058 -117.17739 22 ft 0 kts 286°
2026-04-22 02:38 32.73087 -117.17857 22 ft 45 kts 285°
2026-04-22 02:38 32.73170 -117.18204 21 ft 85 kts 284°
2026-04-22 02:38 32.73378 -117.19054 121 ft 119 kts 287°
2026-04-22 02:38 32.73652 -117.20010 493 ft 126 kts 289°
2026-04-22 02:39 32.74094 -117.20953 894 ft 135 kts 301°
2026-04-22 02:39 32.74619 -117.21947 1225 ft 154 kts 298°
2026-04-22 02:39 32.75157 -117.23112 1720 ft 164 kts 300°
2026-04-22 02:39 32.75766 -117.24233 2397 ft 162 kts 303°
2026-04-22 02:40 32.76412 -117.25308 3015 ft 163 kts 306°
2026-04-22 02:40 32.77094 -117.26389 3562 ft 167 kts 306°
2026-04-22 02:40 32.77757 -117.27501 4211 ft 165 kts 301°
2026-04-22 02:40 32.78381 -117.28648 4777 ft 167 kts 301°
2026-04-22 02:41 32.79004 -117.29829 5284 ft 171 kts 298°
2026-04-22 02:41 32.79609 -117.31022 5926 ft 168 kts 297°
2026-04-22 02:41 32.80240 -117.32164 6457 ft 172 kts 301°
2026-04-22 02:41 32.80988 -117.33312 6995 ft 176 kts 304°
2026-04-22 02:42 32.81743 -117.34403 7627 ft 173 kts 302°
2026-04-22 02:42 32.82471 -117.35550 8177 ft 174 kts 301°
2026-04-22 02:42 32.83194 -117.36711 8688 ft 177 kts 300°
2026-04-22 02:42 32.83914 -117.37863 9247 ft 176 kts 300°
2026-04-22 02:43 32.84657 -117.39047 9737 ft 179 kts 300°
2026-04-22 02:43 32.85425 -117.40268 9982 ft 196 kts 300°
2026-04-22 02:43 32.86296 -117.41656 10030 ft 220 kts 301°
2026-04-22 02:43 32.87266 -117.43184 10020 ft 241 kts 302°
2026-04-22 02:44 32.88312 -117.44823 10015 ft 258 kts 302°
2026-04-22 02:44 32.89434 -117.46571 10006 ft 267 kts 302°
2026-04-22 02:44 32.90563 -117.48323 9993 ft 268 kts 303°
2026-04-22 02:44 32.91703 -117.50091 9993 ft 267 kts 303°
2026-04-22 02:45 32.92826 -117.51832 9991 ft 266 kts 302°
2026-04-22 02:45 32.93948 -117.53575 10002 ft 267 kts 302°
2026-04-22 02:45 32.95087 -117.55347 9942 ft 267 kts 302°
2026-04-22 02:45 32.96204 -117.57085 9976 ft 264 kts 303°
2026-04-22 02:46 32.97332 -117.58843 9962 ft 266 kts 303°
2026-04-22 02:46 32.98450 -117.60586 9947 ft 266 kts 303°
2026-04-22 02:46 32.99573 -117.62337 9946 ft 265 kts 303°
2026-04-22 02:46 33.00689 -117.64078 9950 ft 264 kts 303°
2026-04-22 02:47 33.01814 -117.65836 9957 ft 264 kts 302°
2026-04-22 02:47 33.02918 -117.67561 9947 ft 264 kts 302°
2026-04-22 02:47 33.04037 -117.69312 9951 ft 264 kts 302°
2026-04-22 02:47 33.05153 -117.71058 9942 ft 264 kts 302°
2026-04-22 02:48 33.06294 -117.72787 9924 ft 266 kts 306°
2026-04-22 02:48 33.07650 -117.74303 9948 ft 268 kts 312°
2026-04-22 02:48 33.09069 -117.75764 9956 ft 269 kts 314°
2026-04-22 02:48 33.10502 -117.77211 9948 ft 269 kts 314°
2026-04-22 02:49 33.11955 -117.78674 9942 ft 269 kts 314°
2026-04-22 02:49 33.13402 -117.80133 9952 ft 269 kts 314°
2026-04-22 02:49 33.14829 -117.81576 9953 ft 269 kts 314°
2026-04-22 02:49 33.16259 -117.83025 9950 ft 269 kts 314°
2026-04-22 02:50 33.17686 -117.84474 9948 ft 268 kts 314°
2026-04-22 02:50 33.19165 -117.85845 9942 ft 273 kts 325°
2026-04-22 02:50 33.20959 -117.86285 10878 ft 255 kts 349°
2026-04-22 02:50 33.22681 -117.86634 11164 ft 253 kts 340°
2026-04-22 02:51 33.24373 -117.87116 11607 ft 248 kts 338°
2026-04-22 02:51 33.26077 -117.87615 11874 ft 252 kts 339°
2026-04-22 02:51 33.27789 -117.88103 12174 ft 257 kts 339°
2026-04-22 02:51 33.29529 -117.88583 12772 ft 255 kts 339°
2026-04-22 02:52 33.31287 -117.89058 13174 ft 261 kts 339°
2026-04-22 02:52 33.33030 -117.89517 13720 ft 260 kts 339°
2026-04-22 02:52 33.34813 -117.89983 14168 ft 263 kts 339°
2026-04-22 02:52 33.36595 -117.90440 14667 ft 263 kts 339°
2026-04-22 02:53 33.38337 -117.91081 15031 ft 256 kts 322°
2026-04-22 02:53 33.39794 -117.92242 15524 ft 250 kts 315°
2026-04-22 02:53 33.41174 -117.93505 15862 ft 255 kts 313°
2026-04-22 02:53 33.42598 -117.94859 15957 ft 269 kts 313°
2026-04-22 02:54 33.44103 -117.96300 15959 ft 286 kts 314°
2026-04-22 02:54 33.45711 -117.97838 15947 ft 300 kts 314°
2026-04-22 02:54 33.47370 -117.99414 15954 ft 303 kts 314°
2026-04-22 02:54 33.49009 -118.00965 15960 ft 301 kts 314°
2026-04-22 02:55 33.50661 -118.02528 15977 ft 300 kts 314°
2026-04-22 02:55 33.52279 -118.04060 15962 ft 299 kts 315°
2026-04-22 02:55 33.53918 -118.05611 15959 ft 298 kts 315°
2026-04-22 02:55 33.55557 -118.07166 15965 ft 297 kts 314°
2026-04-22 02:56 33.57159 -118.08685 15972 ft 296 kts 314°
2026-04-22 02:56 33.58797 -118.10240 15668 ft 295 kts 314°
2026-04-22 02:56 33.60383 -118.11745 15320 ft 290 kts 314°
2026-04-22 02:56 33.61949 -118.13230 14948 ft 285 kts 314°
2026-04-22 02:57 33.63495 -118.14698 14577 ft 281 kts 314°
2026-04-22 02:57 33.65024 -118.16153 14213 ft 278 kts 314°
2026-04-22 02:57 33.66533 -118.17590 13843 ft 276 kts 314°
2026-04-22 02:57 33.68029 -118.19013 13482 ft 273 kts 314°
2026-04-22 02:58 33.69510 -118.20425 13127 ft 271 kts 314°
2026-04-22 02:58 33.70998 -118.21845 12746 ft 269 kts 315°
2026-04-22 02:58 33.72454 -118.23234 12383 ft 268 kts 315°
2026-04-22 02:58 33.73906 -118.24620 12022 ft 268 kts 315°
2026-04-22 02:59 33.75383 -118.26031 11667 ft 267 kts 315°
2026-04-22 02:59 33.76823 -118.27406 11315 ft 266 kts 315°
2026-04-22 02:59 33.78262 -118.28781 10948 ft 265 kts 315°
2026-04-22 02:59 33.79709 -118.30164 10576 ft 265 kts 315°
2026-04-22 03:00 33.81152 -118.31544 10203 ft 264 kts 315°
2026-04-22 03:00 33.82574 -118.32904 10006 ft 257 kts 316°
2026-04-22 03:00 33.83943 -118.34209 9966 ft 245 kts 315°
2026-04-22 03:00 33.85271 -118.35476 9963 ft 234 kts 315°
2026-04-22 03:01 33.86524 -118.36672 9964 ft 226 kts 315°
2026-04-22 03:01 33.87771 -118.37872 9982 ft 232 kts 315°
2026-04-22 03:01 33.89040 -118.39094 9988 ft 238 kts 315°
2026-04-22 03:01 33.90350 -118.40356 9980 ft 243 kts 315°
2026-04-22 03:02 33.91688 -118.41644 9983 ft 248 kts 315°
2026-04-22 03:02 33.93109 -118.42896 9964 ft 260 kts 325°
2026-04-22 03:02 33.94907 -118.43475 10004 ft 272 kts 342°
2026-04-22 03:02 33.96787 -118.43907 9985 ft 277 kts 343°
2026-04-22 03:03 33.98706 -118.44312 9980 ft 281 kts 343°
2026-04-22 03:03 34.00637 -118.44710 9975 ft 284 kts 343°
2026-04-22 03:03 34.02608 -118.45115 9977 ft 287 kts 344°
2026-04-22 03:03 34.04606 -118.45525 9975 ft 289 kts 343°
2026-04-22 03:04 34.06575 -118.45929 9968 ft 290 kts 343°
2026-04-22 03:04 34.08590 -118.46348 9972 ft 291 kts 343°
2026-04-22 03:04 34.10609 -118.46759 9974 ft 292 kts 344°
2026-04-22 03:04 34.12611 -118.47169 9969 ft 293 kts 343°
2026-04-22 03:05 34.15314 -118.47723 9972 ft 294 kts 344°
2026-04-22 03:05 34.16667 -118.48002 9976 ft 294 kts 343°
2026-04-22 03:05 34.18694 -118.48405 10005 ft 293 kts 344°
2026-04-22 03:05 34.20708 -118.48821 10008 ft 293 kts 343°
2026-04-22 03:06 34.22696 -118.49332 10002 ft 289 kts 336°
2026-04-22 03:06 34.24614 -118.50127 10009 ft 288 kts 334°
2026-04-22 03:06 34.26476 -118.50954 10014 ft 288 kts 333°
2026-04-22 03:06 34.28357 -118.51803 10012 ft 283 kts 333°
2026-04-22 03:07 34.30189 -118.52627 9670 ft 278 kts 333°
2026-04-22 03:07 34.31987 -118.53437 9303 ft 274 kts 334°
2026-04-22 03:07 34.33772 -118.54240 8933 ft 271 kts 334°
2026-04-22 03:07 34.35544 -118.55038 8557 ft 269 kts 334°
2026-04-22 03:08 34.37278 -118.55817 8193 ft 267 kts 335°
2026-04-22 03:08 34.39033 -118.56606 7819 ft 265 kts 335°
2026-04-22 03:08 34.40759 -118.57382 7446 ft 264 kts 335°
2026-04-22 03:08 34.42503 -118.58082 7059 ft 266 kts 345°
2026-04-22 03:09 34.44375 -118.57858 6706 ft 271 kts 12°
2026-04-22 03:09 34.46216 -118.57438 6343 ft 267 kts
2026-04-22 03:09 34.47967 -118.56782 6028 ft 270 kts 32°
2026-04-22 03:09 34.49146 -118.55061 5998 ft 261 kts 64°
2026-04-22 03:10 34.49387 -118.52979 6004 ft 249 kts 97°
2026-04-22 03:10 34.49200 -118.50957 5987 ft 234 kts 87°
2026-04-22 03:10 34.49124 -118.49056 5978 ft 220 kts 104°
2026-04-22 03:10 34.48651 -118.47360 5995 ft 207 kts 114°
2026-04-22 03:11 34.48112 -118.45775 5993 ft 196 kts 116°
2026-04-22 03:11 34.47184 -118.44711 5910 ft 175 kts 171°
2026-04-22 03:11 34.46126 -118.44993 5781 ft 154 kts 219°
2026-04-22 03:11 34.45309 -118.45785 5632 ft 147 kts 225°
2026-04-22 03:12 34.44525 -118.46625 5376 ft 152 kts 227°
2026-04-22 03:12 34.42951 -118.48298 5107 ft 152 kts 221°
2026-04-22 03:12 34.42074 -118.48985 5025 ft 151 kts 213°
2026-04-22 03:13 34.41089 -118.49470 4889 ft 154 kts 203°
2026-04-22 03:13 34.40056 -118.49831 4799 ft 154 kts 199°
2026-04-22 03:13 34.38972 -118.50078 4744 ft 157 kts 194°
2026-04-22 03:13 34.37913 -118.50253 4780 ft 153 kts 192°
2026-04-22 03:14 34.36832 -118.50343 4681 ft 159 kts 188°
2026-04-22 03:14 34.35691 -118.50336 4552 ft 163 kts 183°
2026-04-22 03:14 34.34562 -118.50245 4408 ft 163 kts 181°
2026-04-22 03:14 34.33436 -118.50157 4231 ft 161 kts 182°
2026-04-22 03:15 34.32330 -118.50052 4078 ft 148 kts 179°
2026-04-22 03:15 34.31342 -118.49957 3721 ft 137 kts 184°
2026-04-22 03:15 34.30399 -118.49892 3279 ft 133 kts 182°
2026-04-22 03:15 34.29489 -118.49812 2925 ft 128 kts 183°
2026-04-22 03:16 34.28616 -118.49770 2605 ft 125 kts 182°
2026-04-22 03:16 34.27739 -118.49701 2275 ft 126 kts 178°
2026-04-22 03:16 34.26886 -118.49592 2001 ft 122 kts 177°
2026-04-22 03:16 34.26025 -118.49512 1729 ft 123 kts 179°
2026-04-22 03:17 34.25166 -118.49440 1504 ft 124 kts 177°
2026-04-22 03:17 34.24329 -118.49355 1381 ft 119 kts 176°
2026-04-22 03:17 34.23497 -118.49279 1228 ft 118 kts 177°
2026-04-22 03:17 34.22683 -118.49194 1062 ft 118 kts 177°
2026-04-22 03:18 34.21870 -118.49120 908 ft 117 kts 178°
2026-04-22 03:18 34.21064 -118.49040 792 ft 109 kts 178°
2026-04-22 03:18 34.20381 -118.48983 765 ft 86 kts 175°
2026-04-22 03:18 34.19862 -118.48937 753 ft 54 kts 172°
2026-04-22 03:19 34.19713 -118.48888 751 ft 12 kts 107°
2026-04-22 03:19 34.19759 -118.48840 751 ft 9 kts 357°
2026-04-22 03:19 34.19815 -118.48843 752 ft 6 kts 356°
2026-04-22 03:19 34.19816 -118.48844 752 ft 0 kts 355°
2026-04-22 03:22 34.19817 -118.48844 752 ft 1 kts 355°
2026-04-22 03:22 34.19846 -118.48847 753 ft 7 kts 355°
2026-04-22 03:22 34.19918 -118.48852 754 ft 12 kts 356°
2026-04-22 03:22 34.19950 -118.48775 754 ft 10 kts 35°
2026-04-22 03:23 34.20003 -118.48772 754 ft 2 kts 295°
2026-04-22 03:23 34.20007 -118.48787 755 ft 2 kts 278°
2026-04-22 03:23 34.20008 -118.48793 755 ft 0 kts 272°